Location: Newark
(54.2500°N, 9.1833°E)
Time: 14:58:02
(UTC+00:00)

Vanguard 2 Rocket - Pass Details

Date: 17 December 2019
Orbit: 554 x 3326 km, 32.9° (Epoch: 17 January)

Event Time Altitude Azimuth Distance (km) Brightness Sun altitude
Rises 15:24:36 0° 227° (SW) 7,266 14.1 -3.7°
Reaches altitude 10° 15:30:52 10° 217° (SW) 6,068 12.6 -4.4°
Maximum altitude 15:44:15 27° 170° (S) 4,059 10.5 -6.1°
Drops below altitude 10° 15:54:03 10° 120° (ESE) 4,372 10.1 -7.3°
Sets 15:57:37 0° 108° (ESE) 4,976 10.3 -7.7°
